sat.trackr.live / text

‹ back to catalog

STARLINK-11451 [DTC]

NORAD 62561 · 2025-006H

PAYLOAD ACTIVE UNKNOWN

§ Identity

Operator
Country
US
Launch date
2025-01-10
Launch site
AFETR
Launch vehicle
Mass (kg)
RCS (m²)

Purposes: comms

External: N2YO · Heavens-Above · Gunter

§ Orbital elements

Epoch: 2026-05-25T02:37:42.436416Z

Period
91.67 min
Inclination
43.0041°
Eccentricity
0.0002658
Mean motion
15.70893966 rev/d
Perigee alt
354.6 km
Apogee alt
358.1 km
Semi-major
6,734.5 km
B*
1.2286e-3
RAAN
39.0444°
Arg perigee
256.5448°
Mean anomaly
103.5123°
Rev number
7,862

§ Raw data

STARLINK-11451 [DTC]1 62561U 25006H   26145.10951894  .00160655  00000+0  12286-2 0  99912 62561  43.0041  39.0444 0002658 256.5448 103.5123 15.70893966 78625

JSON: /api/v1/satellites/62561 · /tle

For live sub-satellite position, see the globe view (requires WebGL).

§ Visibility from observer

Set your observer location to see the next 7 days of passes ≥ 10°. The values pass through the URL so the page stays shareable.

No JS? Fill the form by hand. The geolocation button needs JavaScript.